Milan, NH

6:27 AM EST on February 07, 2016 (GMT -0500)
Berlin Municipal

Weather History for KBML - January, 2002

Change the Weather History Date:

Tuesday, January 22, 2002

  Actual Average Record
Temperature  
Mean Temperature 18 °F -  
Max Temperature 30 °F 20 °F 46 °F (1997)
Min Temperature 5 °F 0 °F -23 °F (2005)
Degree Days  
Heating Degree Days 46    
Moisture  
Dew Point 21 °F    
Average Humidity 80    
Maximum Humidity 96    
Minimum Humidity 61    
Precipitation  
Precipitation 0.00 in - - ()
Sea Level Pressure  
Sea Level Pressure 29.95 in    
Wind  
Wind Speed 10 mph (WNW)    
Max Wind Speed 17 mph    
Max Gust Speed 26 mph    
Visibility 5 miles    
Events Snow    
Averages and records for this station are not official NWS values.
T = Trace of Precipitation, MM = Missing Value Source: NWS Daily Summary

Daily Weather History Graph

Daily Weather History Graph

Search for Another Location

Airport or City:

Trip Planner

Search our weather history database for the weather conditions in past years. The results will help you decide how hot, cold, wet, or windy it might be!

Date:

Astronomy

Jan. 22, 2002 Rise Set
Actual Time 7:13 AM EST 4:39 PM EST
Civil Twilight 6:41 AM EST 5:11 PM EST
Nautical Twilight 6:05 AM EST 5:47 PM EST
Astronomical Twilight 5:31 AM EST 6:21 PM EST
Moon 11:34 AM EST (1/22) 12:45 AM EST (1/22)
Length of Visible Light 10h 30m
Length of Day
9h 26m
First Quarter, 59% of the Moon is Illuminated
Jan 22
First Quarter
Jan 28
Full
Feb 4
Last Quarter
Feb 12
New
Feb 20
First Quarter

Hourly Weather History & Observations

Time (EST) Temp. Windchill Dew Point Humidity Pressure Visibility Wind Dir Wind Speed Gust Speed Precip Events Conditions
12:11 AM 28.4 °F 20.4 °F 24.8 °F 86% 29.58 in 2.5 mi WNW 8.1 mph 16.1 mph 0.00 in Snow Light Snow
12:22 AM 28.4 °F 19.1 °F 24.8 °F 86% 29.58 in 5.0 mi West 10.4 mph 16.1 mph 0.00 in Snow Light Snow
12:52 AM 28.9 °F 19.2 °F 24.1 °F 82% 29.65 in 5.0 mi WNW 11.5 mph - 0.00 in Snow Light Snow
1:25 AM 28.4 °F 19.7 °F 21.2 °F 74% 29.62 in 9.0 mi WNW 9.2 mph - 0.00 in   Overcast
1:52 AM 28.0 °F 17.5 °F 21.0 °F 75% 29.69 in 7.0 mi West 12.7 mph 20.7 mph 0.00 in Snow Light Snow
2:34 AM 26.6 °F 16.2 °F 23.0 °F 86% 29.66 in 2.0 mi WNW 11.5 mph 26.5 mph 0.00 in Snow Light Snow
2:52 AM 27.0 °F 15.6 °F 23.0 °F 85% 29.72 in 2.5 mi West 13.8 mph 25.3 mph 0.00 in Snow Light Snow
2:58 AM 26.6 °F 16.2 °F 21.2 °F 80% 29.67 in 4.0 mi West 11.5 mph 25.3 mph 0.00 in Snow Light Snow
3:52 AM 27.0 °F 16.7 °F 21.0 °F 78% 29.74 in 5.0 mi WNW 11.5 mph 20.7 mph 0.00 in Snow Light Snow
4:52 AM 27.0 °F 18.0 °F 21.9 °F 81% 29.78 in 5.0 mi West 9.2 mph 17.3 mph 0.00 in Snow Light Snow
5:05 AM 28.4 °F 18.5 °F 23.0 °F 80% 29.73 in 5.0 mi WNW 11.5 mph 20.7 mph 0.00 in Snow Light Snow
5:27 AM 28.4 °F 18.5 °F 23.0 °F 80% 29.74 in 5.0 mi WNW 11.5 mph 18.4 mph 0.00 in Snow Light Snow
5:52 AM 27.0 °F 18.0 °F 23.0 °F 85% 29.81 in 3.0 mi WNW 9.2 mph - 0.00 in Snow Light Snow
6:33 AM 28.4 °F 18.0 °F 23.0 °F 80% 29.79 in 5.0 mi West 12.7 mph 23.0 mph 0.00 in Snow Light Snow
6:52 AM 28.0 °F 16.5 °F 23.0 °F 81% 29.86 in 8.0 mi WNW 15.0 mph 20.7 mph 0.00 in   Overcast
7:00 AM 28.4 °F 18.5 °F 23.0 °F 80% 29.81 in 6.0 mi West 11.5 mph 20.7 mph 0.00 in   Overcast
7:26 AM 28.4 °F 17.0 °F 21.2 °F 74% 29.84 in 10.0 mi West 15.0 mph 20.7 mph 0.00 in   Overcast
7:52 AM 28.0 °F 18.6 °F 21.9 °F 78% 29.91 in 8.0 mi West 10.4 mph 25.3 mph 0.00 in   Overcast
8:36 AM 28.4 °F 17.5 °F 23.0 °F 80% 29.89 in 1.8 mi WNW 13.8 mph 19.6 mph 0.00 in Snow Light Snow
8:45 AM 28.4 °F 18.0 °F 24.8 °F 86% 29.90 in 1.0 mi WNW 12.7 mph 19.6 mph 0.00 in Snow Light Snow
8:52 AM 28.0 °F 17.0 °F 24.1 °F 85% 29.96 in 1.0 mi West 13.8 mph 19.6 mph 0.00 in Snow Light Snow
9:01 AM 28.4 °F 19.7 °F 24.8 °F 86% 29.91 in 0.8 mi West 9.2 mph - 0.00 in Snow Light Snow
9:03 AM 28.4 °F 20.4 °F 24.8 °F 86% 29.91 in 1.0 mi WNW 8.1 mph - 0.00 in Snow Light Snow
9:17 AM 28.4 °F 20.4 °F 24.8 °F 86% 29.92 in 1.2 mi WNW 8.1 mph - 0.00 in Snow Light Snow
9:35 AM 28.4 °F 22.2 °F 24.8 °F 86% 29.93 in 1.8 mi Variable 5.8 mph - 0.00 in Snow Light Snow
9:44 AM 28.4 °F 23.3 °F 24.8 °F 86% 29.94 in 2.0 mi Variable 4.6 mph - 0.00 in Snow Light Snow
9:52 AM 28.9 °F 21.9 °F 25.0 °F 85% 29.99 in 2.5 mi WNW 6.9 mph - 0.00 in Snow Light Snow
10:05 AM 28.4 °F 18.0 °F 24.8 °F 86% 29.95 in 1.5 mi WNW 12.7 mph 19.6 mph 0.00 in Snow Light Snow
10:20 AM 28.4 °F 18.5 °F 24.8 °F 86% 29.96 in 2.5 mi WNW 11.5 mph 20.7 mph 0.00 in Snow Light Snow
10:30 AM 30.2 °F 20.2 °F 23.0 °F 75% 29.96 in 3.0 mi WNW 12.7 mph 21.9 mph 0.00 in Snow Light Snow
10:40 AM 30.2 °F 18.5 °F 24.8 °F 80% 29.97 in 2.5 mi WNW 17.3 mph 26.5 mph 0.00 in Snow Light Snow
10:52 AM 30.0 °F 20.0 °F 24.1 °F 79% 30.02 in 1.8 mi WNW 12.7 mph 19.6 mph 0.00 in Snow Light Snow
10:56 AM 30.2 °F 20.2 °F 24.8 °F 80% 29.97 in 2.0 mi West 12.7 mph 21.9 mph 0.00 in Snow Light Snow
11:24 AM 30.2 °F 19.8 °F 24.8 °F 80% 29.99 in 1.5 mi WNW 13.8 mph 20.7 mph 0.00 in Snow Light Snow
11:52 AM 30.0 °F 20.0 °F 24.1 °F 79% 30.06 in 1.8 mi WNW 12.7 mph 21.9 mph 0.00 in Snow Light Snow
12:05 PM 30.2 °F 18.9 °F 24.8 °F 80% 30.01 in 2.0 mi WNW 16.1 mph 24.2 mph 0.00 in Snow Light Snow
12:25 PM 30.2 °F 20.8 °F 24.8 °F 80% 30.02 in 1.5 mi WNW 11.5 mph 20.7 mph 0.00 in Snow Light Snow
12:52 PM 30.9 °F 23.5 °F 24.1 °F 76% 30.08 in 4.0 mi WNW 8.1 mph 18.4 mph 0.00 in Snow Light Snow
1:07 PM 30.2 °F 20.8 °F 21.2 °F 69% 30.03 in 6.0 mi WNW 11.5 mph 19.6 mph 0.00 in Snow Light Snow
1:52 PM 30.9 °F 21.2 °F 19.0 °F 61% 30.09 in 9.0 mi WNW 12.7 mph 24.2 mph 0.00 in   Overcast
2:25 PM 30.2 °F 20.8 °F 21.2 °F 69% 30.08 in 1.8 mi WNW 11.5 mph 19.6 mph 0.00 in Snow Light Snow
2:34 PM 30.2 °F 22.6 °F 21.2 °F 69% 30.09 in 2.5 mi WNW 8.1 mph 17.3 mph 0.00 in Snow Light Snow
2:43 PM 30.2 °F 21.9 °F 21.2 °F 69% 30.09 in 4.0 mi WNW 9.2 mph 17.3 mph 0.00 in Snow Light Snow
2:52 PM 30.0 °F 19.5 °F 21.0 °F 69% 30.14 in 7.0 mi WNW 13.8 mph 18.4 mph 0.00 in Snow Light Snow
3:13 PM 30.2 °F 20.2 °F 19.4 °F 64% 30.11 in 10.0 mi WNW 12.7 mph 21.9 mph 0.00 in   Mostly Cloudy
3:52 PM 28.9 °F 18.6 °F 17.1 °F 61% 30.18 in 10.0 mi WNW 12.7 mph - 0.00 in   Mostly Cloudy
4:52 PM 27.0 °F 18.7 °F 18.0 °F 69% 30.22 in 10.0 mi WNW 8.1 mph - N/A   Clear
5:52 PM 26.1 °F 21.9 °F 19.0 °F 75% 30.24 in 10.0 mi WNW 3.5 mph - N/A   Mostly Cloudy
6:52 PM 16.0 °F - 15.1 °F 96% 30.26 in 10.0 mi Calm Calm - N/A   Clear
7:52 PM 15.1 °F - 14.0 °F 95% 30.27 in 9.0 mi Calm Calm - N/A   Mostly Cloudy
8:52 PM 14.0 °F - 12.9 °F 95% 30.27 in 7.0 mi Calm Calm - N/A   Scattered Clouds
9:52 PM 7.0 °F - 5.0 °F 92% 30.25 in 5.0 mi Calm Calm - N/A   Clear
10:52 PM 7.0 °F - 5.0 °F 92% 30.26 in 7.0 mi Calm Calm - N/A   Clear
11:52 PM 5.0 °F - 1.9 °F 87% 30.24 in 10.0 mi Calm Calm - N/A   Clear